Location: ?p Dangia
(12.0167°N, 108.4333°E)
Time: 12:44:01
(UTC+00:00)

Cosmos 2297 - Pass Details

Date: 07 June 2020
Orbit: 835 x 860 km, 71.0° (Epoch: 14 July)

Event Time Altitude Azimuth Distance (km) Brightness Sun altitude
Rises 11:27:50 0° 187° (S) 3,378 6.6 -4.9°
Reaches altitude 10° 11:30:18 10° 183° (S) 2,447 5.9 -5.5°
Maximum altitude 11:35:49 58° 105° (ESE) 972 3.8 -6.7°
Drops below altitude 10° 11:41:21 10° 27° (NNE) 2,463 6.1 -7.9°
Sets 11:43:50 0° 23° (NNE) 3,402 6.9 -8.5°
